Weather History for Thedford, NE

Change the Weather History Date:

Tuesday, January 14, 2014

  Actual Average (KLBF) Record (KLBF)
Temperature  
Mean Temperature 34 °F 25 °F  
Max Temperature 42 °F 39 °F 68 °F (2006)
Min Temperature 26 °F 11 °F -26 °F (1888)
Degree Days  
Heating Degree Days 31 40  
Month to date heating degree days 565  
Since 1 July heating degree days 3345  
Cooling Degree Days 0 0  
Month to date cooling degree days 0  
Year to date cooling degree days 0  
Moisture  
Dew Point 21 °F    
Average Humidity 64    
Maximum Humidity 89    
Minimum Humidity 45    
Precipitation  
Precipitation 0.00 in 0.01 in 0.69 in (1960)
Month to date precipitation 0.16  
Year to date precipitation 0.16  
Snow  
Snow 0.00 in 0.10 in 7.30 in (1960)
Month to date snowfall 2.2  
Since 1 July snowfall 13.0  
Snow Depth -    
Sea Level Pressure  
Sea Level Pressure 30.14 in    
Wind  
Wind Speed 22 mph (NW)    
Max Wind Speed 34 mph    
Max Gust Speed 45 mph    
Visibility 10 miles    
Events Snow    
T = Trace of Precipitation, MM = Missing Value Source: NWS Daily Summary

Daily Weather History Graph

Daily Weather History Graph

Search for Another Location

Airport:

Trip Planner

Search our weather history database for the weather conditions in past years. The results will help you decide how hot, cold, wet, or windy it might be!

Date:

Astronomy

Jan. 14, 2014 Rise Set
Actual Time 8:08 AM CST 5:35 PM CST
Civil Twilight 7:37 AM CST 6:05 PM CST
Nautical Twilight 7:02 AM CST 6:40 PM CST
Astronomical Twilight 6:29 AM CST 7:13 PM CST
Moon 4:42 PM CST (1/14) 6:43 AM CST (1/14)
Length of Visible Light 10h 28m
Length of Day
9h 26m
Waxing Gibbous, 98% of the Moon is Illuminated
Jan 14
Waxing Gibbous
Jan 15
Full
Jan 23
Last Quarter
Jan 30
New
Feb 6
First Quarter

Hourly Weather History & Observations

Time (CST) Temp. Windchill Dew Point Humidity Pressure Visibility Wind Dir Wind Speed Gust Speed Precip Events Conditions
12:15 AM 42.8 °F 33.5 °F 32.0 °F 66% 29.83 in 10.0 mi NNW 23.0 mph 32.2 mph N/A   Mostly Cloudy
12:35 AM 41.0 °F 29.1 °F 29.7 °F 64% 29.84 in 10.0 mi NNW 34.5 mph 44.9 mph N/A   Scattered Clouds
12:55 AM 40.1 °F 29.5 °F 29.7 °F 66% 29.86 in 10.0 mi NNW 25.3 mph 38.0 mph N/A   Mostly Cloudy
1:15 AM 38.7 °F 28.8 °F 28.4 °F 67% 29.88 in 10.0 mi NW 19.6 mph - N/A   Scattered Clouds
1:35 AM 38.5 °F 28.6 °F 28.2 °F 67% 29.90 in 10.0 mi NNW 19.6 mph 39.1 mph N/A   Scattered Clouds
1:55 AM 38.3 °F 26.8 °F 28.4 °F 68% 29.90 in 10.0 mi NNW 26.5 mph 35.7 mph N/A   Scattered Clouds
2:15 AM 37.8 °F 26.1 °F 25.5 °F 61% 29.90 in 10.0 mi NNW 26.5 mph 35.7 mph N/A   Mostly Cloudy
2:35 AM 37.0 °F 25.9 °F 25.5 °F 63% 29.94 in 10.0 mi NNW 23.0 mph 29.9 mph N/A   Scattered Clouds
2:55 AM 36.9 °F 25.1 °F 25.9 °F 64% 29.96 in 10.0 mi NW 25.3 mph 35.7 mph N/A   Clear
3:15 AM 36.3 °F 24.2 °F 23.5 °F 60% 29.97 in 10.0 mi NNW 26.5 mph 35.7 mph N/A   Clear
3:35 AM 35.8 °F 24.8 °F 23.9 °F 62% 29.98 in 10.0 mi NNW 20.7 mph 29.9 mph N/A   Clear
3:55 AM 35.1 °F 22.7 °F 21.9 °F 59% 29.99 in 10.0 mi NW 25.3 mph 32.2 mph N/A   Clear
4:15 AM 34.2 °F 23.0 °F 21.7 °F 60% 29.99 in 10.0 mi NW 19.6 mph 31.1 mph N/A   Clear
4:35 AM 34.2 °F 22.3 °F 20.3 °F 57% 30.01 in 10.0 mi NNW 21.9 mph 33.4 mph N/A   Clear
4:55 AM 33.8 °F 21.3 °F 20.3 °F 58% 30.01 in 10.0 mi NNW 24.2 mph 34.5 mph N/A   Clear
5:15 AM 33.8 °F 20.8 °F 19.4 °F 56% 30.02 in 10.0 mi NNW 26.5 mph 38.0 mph N/A   Clear
5:35 AM 32.9 °F 20.4 °F 19.4 °F 58% 30.03 in 10.0 mi NNW 23.0 mph 35.7 mph N/A   Clear
5:55 AM 32.2 °F 20.4 °F 20.5 °F 62% 30.05 in 10.0 mi NNW 19.6 mph 31.1 mph N/A   Clear
6:15 AM 32.4 °F 18.9 °F 21.2 °F 63% 30.06 in 10.0 mi NNW 26.5 mph 38.0 mph N/A   Clear
6:35 AM 32.0 °F 17.4 °F 19.6 °F 60% 30.08 in 10.0 mi NNW 31.1 mph 35.7 mph N/A   Clear
6:55 AM 32.0 °F 19.8 °F 18.5 °F 58% 30.09 in 10.0 mi NNW 20.7 mph 35.7 mph N/A   Clear
7:15 AM 31.1 °F 18.9 °F 18.3 °F 59% 30.10 in 10.0 mi NNW 19.6 mph 25.3 mph N/A   Clear
7:35 AM 31.1 °F 19.3 °F 16.5 °F 55% 30.12 in 10.0 mi NNW 18.4 mph 28.8 mph N/A   Clear
7:55 AM 30.9 °F 18.1 °F 14.0 °F 50% 30.13 in 10.0 mi NNW 21.9 mph 27.6 mph N/A   Clear
8:15 AM 30.6 °F 18.6 °F 14.2 °F 51% 30.13 in 10.0 mi NNW 18.4 mph 25.3 mph N/A   Clear
8:35 AM 30.7 °F 18.5 °F 15.8 °F 54% 30.14 in 10.0 mi NW 19.6 mph - N/A   Clear
8:55 AM 31.1 °F 20.5 °F 17.2 °F 57% 30.15 in 10.0 mi NW 15.0 mph 20.7 mph N/A   Clear
9:15 AM 32.0 °F 18.9 °F 18.0 °F 56% 30.16 in 10.0 mi NW 24.2 mph 31.1 mph N/A   Clear
9:35 AM 32.9 °F 20.4 °F 18.3 °F 55% 30.17 in 10.0 mi NW 23.0 mph 31.1 mph N/A   Clear
9:55 AM 33.8 °F 21.0 °F 17.4 °F 51% 30.19 in 10.0 mi NW 25.3 mph 34.5 mph N/A   Clear
10:15 AM 34.5 °F 22.8 °F 15.8 °F 46% 30.19 in 10.0 mi NW 21.9 mph 34.5 mph N/A   Scattered Clouds
10:35 AM 35.1 °F 22.7 °F 15.6 °F 45% 30.19 in 10.0 mi NNW 25.3 mph 38.0 mph N/A   Scattered Clouds
10:55 AM 36.0 °F 23.2 °F 16.7 °F 46% 30.21 in 10.0 mi NW 28.8 mph 41.4 mph N/A   Clear
11:15 AM 36.3 °F 23.1 °F 17.8 °F 47% 30.21 in 10.0 mi NNW 32.2 mph 40.3 mph N/A   Scattered Clouds
11:35 AM 36.9 °F 25.4 °F 18.7 °F 48% 30.21 in 10.0 mi NW 24.2 mph 35.7 mph N/A   Scattered Clouds
11:55 AM 36.7 °F 24.7 °F 18.1 °F 47% 30.20 in 10.0 mi NNW 26.5 mph 41.4 mph N/A   Mostly Cloudy
12:15 PM 37.0 °F 24.7 °F 18.0 °F 46% 30.20 in 10.0 mi NNW 28.8 mph 36.8 mph N/A   Mostly Cloudy
12:35 PM 35.8 °F 24.8 °F 17.8 °F 48% 30.20 in 10.0 mi NNW 20.7 mph 36.8 mph N/A   Mostly Cloudy
12:55 PM 36.7 °F 24.2 °F 17.6 °F 46% 30.20 in 10.0 mi NNW 28.8 mph 35.7 mph N/A   Mostly Cloudy
1:15 PM 36.3 °F 23.9 °F 16.9 °F 45% 30.20 in 10.0 mi NNW 27.6 mph 41.4 mph N/A   Mostly Cloudy
1:35 PM 35.6 °F 24.8 °F 18.3 °F 50% 30.21 in 10.0 mi NW 19.6 mph 31.1 mph N/A   Mostly Cloudy
1:55 PM 35.6 °F 25.2 °F 21.9 °F 58% 30.21 in 10.0 mi NNW 18.4 mph 28.8 mph N/A   Scattered Clouds
2:15 PM 36.7 °F 24.4 °F 19.4 °F 50% 30.20 in 10.0 mi NNW 27.6 mph 34.5 mph N/A   Scattered Clouds
2:35 PM 36.0 °F 23.9 °F 17.4 °F 47% 30.20 in 10.0 mi NNW 25.3 mph 33.4 mph N/A   Scattered Clouds
2:55 PM 32.4 °F 21.3 °F 26.1 °F 78% 30.21 in 2.5 mi NW 17.3 mph 29.9 mph N/A Snow Light Snow
3:15 PM 31.6 °F 20.0 °F 27.1 °F 83% 30.22 in 0.2 mi NW 18.4 mph 27.6 mph N/A Snow Snow
3:35 PM 31.1 °F 18.3 °F 28.2 °F 89% 30.23 in 0.2 mi NNW 21.9 mph 29.9 mph N/A Snow Light Snow
3:55 PM 32.0 °F 20.8 °F 25.9 °F 78% 30.23 in 10.0 mi NNW 17.3 mph 23.0 mph N/A   Scattered Clouds
4:15 PM 32.0 °F 19.8 °F 24.8 °F 75% 30.23 in 7.0 mi NNW 20.7 mph 26.5 mph N/A Snow Light Snow
4:35 PM 32.5 °F 20.8 °F 24.6 °F 73% 30.24 in 10.0 mi NNW 19.6 mph 28.8 mph N/A   Scattered Clouds
4:55 PM 30.4 °F 18.4 °F 26.4 °F 85% 30.25 in 1.5 mi NW 18.4 mph 28.8 mph N/A Snow Light Snow
5:15 PM 30.0 °F 20.0 °F 24.1 °F 79% 30.25 in 10.0 mi NNW 12.7 mph - N/A   Scattered Clouds
5:35 PM 29.7 °F 21.3 °F 23.4 °F 77% 30.25 in 10.0 mi NNW 9.2 mph 17.3 mph N/A   Scattered Clouds
5:55 PM 28.9 °F 22.8 °F 22.8 °F 78% 30.26 in 10.0 mi North 5.8 mph - N/A   Scattered Clouds
6:15 PM 29.3 °F 21.5 °F 24.3 °F 81% 30.26 in 10.0 mi NNW 8.1 mph - N/A   Scattered Clouds
6:35 PM 29.8 °F 19.3 °F 24.8 °F 81% 30.26 in 10.0 mi NNW 13.8 mph - N/A   Mostly Cloudy
6:55 PM 30.2 °F 20.8 °F 24.3 °F 79% 30.26 in 10.0 mi NNW 11.5 mph - N/A   Mostly Cloudy
7:15 PM 29.3 °F 20.2 °F 23.4 °F 78% 30.26 in 10.0 mi NNW 10.4 mph - N/A   Scattered Clouds
7:35 PM 29.1 °F 19.4 °F 23.5 °F 80% 30.26 in 10.0 mi NNW 11.5 mph - N/A   Scattered Clouds
7:55 PM 29.3 °F 19.6 °F 22.8 °F 77% 30.25 in 10.0 mi NW 11.5 mph 17.3 mph N/A Snow Light Snow
8:15 PM 28.0 °F 20.0 °F 21.7 °F 77% 30.25 in 10.0 mi WNW 8.1 mph - N/A   Clear
8:35 PM 26.6 °F 16.8 °F 19.6 °F 75% 30.24 in 10.0 mi NW 10.4 mph - N/A   Clear
8:55 PM 27.1 °F 17.5 °F 18.3 °F 69% 30.25 in 10.0 mi NW 10.4 mph - N/A   Clear
9:15 PM 26.4 °F 18.9 °F 18.1 °F 71% 30.25 in 10.0 mi NW 6.9 mph - N/A   Clear
9:35 PM 26.6 °F 16.8 °F 18.5 °F 71% 30.25 in 10.0 mi WNW 10.4 mph - N/A   Clear
9:55 PM 27.0 °F 18.7 °F 18.7 °F 71% 30.26 in 10.0 mi WNW 8.1 mph - N/A   Mostly Cloudy
10:15 PM 26.6 °F 18.2 °F 18.9 °F 73% 30.26 in 10.0 mi WNW 8.1 mph - N/A   Mostly Cloudy
10:35 PM 27.5 °F 18.6 °F 19.0 °F 71% 30.25 in 10.0 mi WNW 9.2 mph - N/A   Mostly Cloudy
10:55 PM 26.8 °F 18.5 °F 18.5 °F 71% 30.24 in 10.0 mi WNW 8.1 mph - N/A   Scattered Clouds
11:15 PM 26.4 °F 18.0 °F 19.2 °F 74% 30.23 in 10.0 mi WNW 8.1 mph - N/A   Mostly Cloudy
11:35 PM 27.5 °F 20.2 °F 20.3 °F 74% 30.23 in 10.0 mi WNW 6.9 mph - N/A   Overcast
11:55 PM 27.5 °F 20.2 °F 20.3 °F 74% 30.22 in 10.0 mi WNW 6.9 mph - N/A   Overcast